Hlavní strana
METAR-TAF:

METAR-TAF

Letiště :

Flora Municipal Airport

Flora, Illinois, Spojené státy americké

zeměpisná šířka: 38-39-54N, zeměpisná délka: 088-27-11W, výška: 144 m

Aktuální stav počasí

Zpráva byla vytvořena před 18 minutami, v 03:15 UTC
Severní vítr 4 kt
Teplota 8°C
Vlhkost vzduchu 93%
Tlak 1019 hPa
Viditelnost: 16.1 km
Polojasno ve výšce 900 ft
Zataženo ve výšce 1600 ft

METAR: KFOA 260315Z AUTO 35004KT 10SM SCT009 OVC016 08/07 A3008 RMK AO2

Čas: 22:33 (03:33 UTC)


TAF: chybějící

Stav a předpovědi počasí z více než 4 000 letišť (zprávy METAR a TAF).

Červené a žluté tečky na mapě představují dostupné meteorologické stanice.

Když kurzor umístíte na tečku, zobrazí se název stanice.

Pak kliknutím zobrazíte stav a předpověď počasí.

Chcete-li změnit mapu, kliknutím na zelené tlačítko se znaménkem +mapu přiblížíte, kliknutím na zelené tlačítko se znaménkem – mapu oddálíte a kliknutím na zelené šipky přejdete na sousední mapy.


METAR-TAF: